Location: PACMO
(41.3967°N, 90.3760°W)
Time: 00:50:15
(UTC-05:00)

Amateur Radio Satellites - All Passes

Search period start: 04 September 2015 00:20
Search period end: 05 September 2015 00:20
Location: PACMO, 41.3967°N, 90.3760°W

Satellite Date Start Highest point End Downlink Frequencies (MHz)
Time Altitude Azimuth
QB50P1 04 Sep 00:23:42 00:28:02 89° 310° (NW) 00:32:19 145.935-145.965
CUBEBUG 1 04 Sep 00:28:31 00:32:17 28° 265° (W) 00:36:00 437.445
RS-15 04 Sep 00:34:15 00:46:01 67° 51° (NE) 00:58:13 29.354- 29.394
AIST 2 04 Sep 00:35:13 00:39:23 70° 56° (NE) 00:43:29 435.215
CUSAT 1 04 Sep 00:37:27 00:41:34 51° 286° (WNW) 00:47:06 437.405
ESTCUBE 1 04 Sep 00:38:55 00:42:13 19° 268° (W) 00:45:23 437.505/2401.250
AISAT 04 Sep 00:40:34 00:42:51 13° 271° (W) 00:44:56 437.250
SWISSCUBE 04 Sep 00:40:51 00:43:25 15° 63° (ENE) 00:46:10 437.505
PCSat 04 Sep 00:47:13 00:51:49 30° 110° (ESE) 00:56:33 145.827
SO-50 04 Sep 00:51:26 00:56:13 88° 122° (ESE) 01:01:10 436.795
AUBIESAT-1 04 Sep 00:52:23 00:55:45 29° 296° (WNW) 00:58:51 437.475
UNISAT 6 04 Sep 00:59:42 01:02:32 16° 296° (WNW) 01:05:09 437.425
TISAT 1 04 Sep 01:00:01 01:04:13 71° 258° (WSW) 01:08:28 437.305
M-CUBED/EXP-1 PRIME 04 Sep 01:01:33 01:04:29 20° 299° (WNW) 01:07:10 437.505
BUGSAT 1 04 Sep 01:17:50 01:21:48 37° 289° (WNW) 01:25:44 437.445
ITUPSAT 1 04 Sep 01:19:18 01:23:27 31° 69° (ENE) 01:27:40 437.325
Cosmos 2504 04 Sep 01:19:21 01:26:02 25° 296° (WNW) 01:32:38 435.465 / 435.565
DUCHIFAT 1 04 Sep 01:26:17 01:29:31 21° 293° (WNW) 01:32:39 145.980
POLYITAN 1 04 Sep 01:28:00 01:31:05 19° 293° (WNW) 01:34:03 437.675
POPSAT HIP 1 04 Sep 01:29:10 01:32:15 19° 293° (WNW) 01:35:12 437.405
DANDE 04 Sep 01:32:19 01:35:32 22° 296° (WNW) 01:39:26 436.750
Oscar 19 04 Sep 01:45:54 01:50:17 28° 94° (E) 01:54:44 437.125/150
NANOSAT C BR1 04 Sep 01:46:06 01:48:13 13° 296° (WNW) 01:50:08 145.865
QB50P2 04 Sep 01:48:12 01:50:00 12° 297° (WNW) 01:51:36 145.880/145.840
SPROUT 04 Sep 01:48:20 01:50:28 13° 271° (W) 01:52:24 437.525
BEESAT 04 Sep 01:49:34 01:54:16 64° 74° (ENE) 01:59:00 436.000
VERMONT LUNAR 04 Sep 02:04:32 02:06:46 19° 154° (SSE) 02:09:02 437.305
KKS-1 04 Sep 02:06:09 02:08:44 16° 64° (ENE) 02:11:30 437.445
SWISSCUBE 04 Sep 02:16:05 02:20:48 64° 259° (W) 02:25:33 437.505
AIST 2 04 Sep 02:16:15 02:17:25 11° 251° (WSW) 02:18:21 435.215
PCSat 04 Sep 02:30:03 02:35:08 40° 307° (NW) 02:40:14 145.827
GONETS M04 04 Sep 02:33:47 02:42:09 57° 91° (E) 02:50:39
SO-50 04 Sep 02:34:18 02:37:31 17° 323° (NW) 02:40:37 436.795
RS-15 04 Sep 02:47:22 02:58:03 39° 252° (WSW) 03:08:42 29.354- 29.394
ITAMSAT 1 04 Sep 02:52:26 02:56:52 29° 95° (E) 03:01:23 435.822/435.867
Gurwin Techsat 1B 04 Sep 02:54:47 02:59:44 39° 97° (E) 03:04:41 435.225
Cosmos 2499 04 Sep 02:57:06 03:02:57 22° 80° (E) 03:09:20 435.465 / 435.565
ITUPSAT 1 04 Sep 02:57:14 03:01:21 28° 265° (W) 03:05:24 437.325
AO-7 04 Sep 03:11:09 03:12:35 11° 83° (E) 03:14:49 29.400- 29.500
STARS 04 Sep 03:13:02 03:17:14 45° 72° (ENE) 03:21:29 437.465
Oscar 19 04 Sep 03:24:57 03:29:43 36° 291° (WNW) 03:34:24 437.125/150
BEESAT 04 Sep 03:30:12 03:32:38 13° 271° (W) 03:34:49 436.000
JAS-2 04 Sep 03:38:36 03:45:11 49° 97° (E) 03:51:00 435.910
VERMONT LUNAR 04 Sep 03:39:55 03:42:52 59° 169° (S) 03:45:49 437.305
KKS-1 04 Sep 03:40:37 03:44:59 53° 260° (W) 03:49:22 437.445
PHONESAT 2.4 04 Sep 03:55:26 03:57:31 16° 150° (SSE) 03:59:40 2401.200-2431.200
O/OREOS (USA 219) 04 Sep 04:06:29 04:10:53 43° 62° (ENE) 04:15:16 437.305
MOZHAYETS 4 04 Sep 04:18:42 04:23:11 54° 74° (ENE) 04:27:42
ITAMSAT 1 04 Sep 04:31:44 04:36:26 35° 292° (WNW) 04:41:04 435.822/435.867
GONETS M04 04 Sep 04:31:55 04:39:32 32° 292° (WNW) 04:47:01
Gurwin Techsat 1B 04 Sep 04:35:05 04:39:34 28° 293° (WNW) 04:43:57 435.225
HORYU 2 04 Sep 04:43:41 04:47:58 44° 99° (E) 04:52:13 437.375
Cosmos 2499 04 Sep 04:46:36 04:55:11 81° 280° (W) 05:04:07 435.465 / 435.565
CUBESAT XI-V 04 Sep 04:49:38 04:50:21 10° 62° (ENE) 04:51:19 437.345
STARS 04 Sep 04:51:00 04:53:57 17° 269° (W) 04:56:44 437.465
AO-7 04 Sep 04:58:59 05:07:14 66° 104° (ESE) 05:15:28 29.400- 29.500
VERMONT LUNAR 04 Sep 05:16:13 05:19:11 71° 187° (S) 05:22:10 437.305
JAS-2 04 Sep 05:24:06 05:29:55 29° 297° (WNW) 05:35:04 435.910
PHONESAT 2.4 04 Sep 05:31:39 05:34:58 50° 165° (SSE) 05:38:18 2401.200-2431.200
O/OREOS (USA 219) 04 Sep 05:46:44 05:50:01 19° 258° (WSW) 05:53:09 437.305
MOZHAYETS 4 04 Sep 05:58:07 06:00:49 15° 271° (W) 06:03:18
YUBILEINY 04 Sep 06:03:22 06:05:09 11° 51° (NE) 06:07:38 435.215
STRAND 1 04 Sep 06:04:37 06:08:08 20° 64° (ENE) 06:11:48 437.568
HORYU 2 04 Sep 06:21:12 06:24:18 18° 295° (WNW) 06:27:14 437.375
CUBESAT XI-V 04 Sep 06:22:34 06:27:10 86° 261° (W) 06:31:48 437.345
Cubesat XI-IV 04 Sep 06:38:47 06:43:20 29° 95° (E) 06:47:57 437.490
Cosmos 2499 04 Sep 06:44:18 06:50:03 18° 302° (WNW) 06:55:27 435.465 / 435.565
PRISM 04 Sep 06:49:13 06:52:46 30° 70° (ENE) 06:56:23 437.425
AO-7 04 Sep 06:52:35 06:59:33 30° 303° (WNW) 07:06:18 29.400- 29.500
VERMONT LUNAR 04 Sep 06:52:46 06:55:23 28° 202° (SSW) 06:57:59 437.305
ISS 04 Sep 07:01:05 07:03:18 17° 133° (SE) 07:05:36 145.825
PHONESAT 2.4 04 Sep 07:09:20 07:12:46 78° 180° (S) 07:16:10 2401.200-2431.200
CUTE-I 04 Sep 07:22:05 07:27:25 72° 102° (ESE) 07:32:45 437.470
AIST 1 04 Sep 07:24:32 07:28:02 26° 90° (E) 07:31:39
STRAND 1 04 Sep 07:42:00 07:46:59 53° 260° (W) 07:51:58 437.568
SO-50 04 Sep 07:43:47 07:46:35 15° 35° (NE) 07:49:29 436.795
YUBILEINY 04 Sep 07:55:53 08:04:34 58° 76° (ENE) 08:13:12 435.215
HO-68 04 Sep 08:04:15 08:07:29 14° 86° (E) 08:11:12 435.675
Cubesat XI-IV 04 Sep 08:18:38 08:23:30 36° 291° (WNW) 08:28:19 437.490
BRITE-PL 04 Sep 08:23:38 08:29:10 60° 99° (E) 08:34:49 437.365/2234.400
PRISM 04 Sep 08:25:03 08:28:15 21° 266° (W) 08:31:22 437.425
DOVE 4 04 Sep 08:29:07 08:33:24 25° 92° (E) 08:37:42 437.250
GOMX 1 04 Sep 08:33:28 08:38:43 45° 97° (E) 08:43:57 467.674
ISS 04 Sep 08:36:17 08:39:28 53° 328° (NNW) 08:42:41 145.825
Cosmos 2491 04 Sep 08:44:44 08:53:08 58° 91° (E) 09:01:38 435.465 / 435.565
PHONESAT 2.4 04 Sep 08:47:15 08:50:29 42° 198° (SSW) 08:53:44 2401.200-2431.200
CINEMA 3 04 Sep 08:47:50 08:50:35 15° 88° (E) 08:53:31 145.822/145.860
AIST 1 04 Sep 09:02:10 09:05:41 24° 287° (WNW) 09:09:08
CUTE-I 04 Sep 09:03:43 09:06:58 16° 298° (WNW) 09:10:00 437.470
Cosmos 2504 04 Sep 09:12:23 09:18:52 25° 64° (ENE) 09:25:20 435.465 / 435.565
TIGRISAT 04 Sep 09:14:57 09:15:33 10° 61° (ENE) 09:16:26 435.000
CUTE 1.7 + AOD 2 04 Sep 09:19:33 09:23:38 47° 99° (E) 09:27:42 437.475
SO-50 04 Sep 09:23:01 09:27:59 80° 56° (NE) 09:32:49 436.795
CUSAT 1 04 Sep 09:30:08 09:36:19 25° 64° (ENE) 09:42:55 437.405
ANTELSAT 04 Sep 09:31:18 09:34:07 16° 65° (ENE) 09:37:06 437.575/2403.000
CANX-2 04 Sep 09:34:05 09:38:20 79° 104° (ESE) 09:42:32 2200.000
PCSat 04 Sep 09:34:32 09:39:07 27° 48° (NE) 09:43:46 145.827
FUNcube-1 04 Sep 09:37:32 09:38:11 10° 86° (E) 09:39:08 145.935
UWE-3 04 Sep 09:47:26 09:50:44 20° 91° (E) 09:54:04 435.000/436.395/437.385
CUBEBUG 2 04 Sep 09:48:16 09:52:09 27° 93° (E) 09:56:01 437.445
SEEDS 04 Sep 09:48:34 09:52:46 82° 101° (E) 09:56:56 437.485
HO-68 04 Sep 09:49:11 09:56:26 83° 105° (ESE) 10:03:38 435.675
YUBILEINY 04 Sep 09:53:28 10:00:58 31° 275° (W) 10:08:12 435.215
BRITE-PL 04 Sep 10:03:07 10:07:16 21° 295° (WNW) 10:11:19 437.365/2234.400
COMPASS 1 04 Sep 10:03:58 10:08:08 86° 288° (WNW) 10:12:16 437.405
AUBIESAT-1 04 Sep 10:04:11 10:08:22 33° 65° (ENE) 10:12:29 437.475
DOVE 4 04 Sep 10:06:17 10:11:18 42° 289° (WNW) 10:16:12 437.250
DELFI C3 04 Sep 10:07:40 10:10:48 22° 94° (E) 10:13:59 145.870
AAUSAT CUBESAT 2 04 Sep 10:10:42 10:14:51 86° 284° (WNW) 10:18:58 437.432
GOMX 1 04 Sep 10:12:03 10:16:35 26° 293° (WNW) 10:20:59 467.674
M-CUBED/EXP-1 PRIME 04 Sep 10:12:57 10:17:31 47° 67° (ENE) 10:22:00 437.505
ISS 04 Sep 10:14:15 10:16:27 16° 348° (NNW) 10:18:37 145.825
Oscar 11 04 Sep 10:15:26 10:19:35 44° 98° (E) 10:23:42 145.826/435.025
UNISAT 6 04 Sep 10:20:12 10:24:43 48° 73° (ENE) 10:29:17 437.425
CINEMA 3 04 Sep 10:23:21 10:28:17 60° 286° (WNW) 10:33:00 145.822/145.860
DANDE 04 Sep 10:25:34 10:32:53 42° 72° (ENE) 10:40:54 436.750
PHONESAT 2.4 04 Sep 10:26:29 10:27:52 12° 212° (SSW) 10:29:10 2401.200-2431.200
BUGSAT 1 04 Sep 10:34:25 10:36:25 14° 65° (ENE) 10:38:36 437.445
DUCHIFAT 1 04 Sep 10:42:29 10:46:02 27° 69° (ENE) 10:49:41 145.980
Cosmos 2491 04 Sep 10:42:57 10:50:33 31° 292° (WNW) 10:58:00 435.465 / 435.565
POLYITAN 1 04 Sep 10:44:28 10:48:11 30° 70° (ENE) 10:52:00 437.675
POPSAT HIP 1 04 Sep 10:45:28 10:49:10 30° 70° (ENE) 10:52:58 437.405
TIGRISAT 04 Sep 10:46:55 10:51:37 88° 77° (ENE) 10:56:22 435.000
AISAT 04 Sep 10:54:45 10:55:36 11° 87° (E) 10:56:46 437.250
CUTE 1.7 + AOD 2 04 Sep 10:56:37 10:59:12 15° 294° (WNW) 11:01:37 437.475
NANOSAT C BR1 04 Sep 11:00:56 11:04:58 44° 72° (ENE) 11:09:03 145.865
QB50P2 04 Sep 11:03:02 11:07:09 49° 73° (ENE) 11:11:19 145.880/145.840
Cosmos 2504 04 Sep 11:03:39 11:12:03 71° 266° (W) 11:19:52 435.465 / 435.565
SO-50 04 Sep 11:05:46 11:07:55 12° 252° (WSW) 11:09:48 436.795
ANTELSAT 04 Sep 11:05:50 11:10:28 57° 260° (W) 11:15:08 437.575/2403.000
ZACube-1 04 Sep 11:07:07 11:11:36 74° 284° (WNW) 11:15:56 437.345
FUNcube-1 04 Sep 11:10:41 11:15:08 70° 285° (WNW) 11:19:26 145.935
CUSAT 1 04 Sep 11:11:39 11:19:42 79° 263° (W) 11:27:50 437.405
QB50P1 04 Sep 11:16:07 11:20:19 67° 75° (ENE) 11:24:36 145.935-145.965
PCSat 04 Sep 11:17:35 11:22:47 47° 247° (WSW) 11:27:56 145.827
HUMSAT D 04 Sep 11:19:27 11:23:37 57° 100° (E) 11:27:42 437.325/437.525
VELOX 1 04 Sep 11:19:46 11:23:00 20° 92° (E) 11:26:21 145.980
UWE-3 04 Sep 11:23:11 11:27:26 38° 289° (WNW) 11:31:32 435.000/436.395/437.385
CUBEBUG 2 04 Sep 11:24:45 11:28:50 30° 291° (WNW) 11:32:45 437.445
HO-68 04 Sep 11:38:18 11:43:26 21° 303° (WNW) 11:48:17 435.675
AUBIESAT-1 04 Sep 11:38:56 11:43:02 28° 260° (W) 11:46:59 437.475
DELFI C3 04 Sep 11:42:27 11:45:51 27° 290° (WNW) 11:49:12 145.870
M-CUBED/EXP-1 PRIME 04 Sep 11:48:53 11:52:28 20° 263° (W) 11:55:51 437.505
DX 1 04 Sep 11:50:00 11:54:23 66° 102° (ESE) 11:58:44 434.975-435.025
ISS 04 Sep 11:51:53 11:53:49 15° 8° (N) 11:55:47 145.825
50 SAT 04 Sep 11:52:24 11:56:13 55° 100° (E) 11:59:58 437.505
Oscar 11 04 Sep 11:52:36 11:55:27 17° 294° (WNW) 11:58:08 145.826/435.025
UKube-1 04 Sep 11:56:16 12:00:37 70° 102° (ESE) 12:04:56 .
UNISAT 6 04 Sep 11:58:33 12:01:47 18° 270° (W) 12:04:52 437.425
BUGSAT 1 04 Sep 12:07:28 12:11:27 52° 260° (W) 12:15:32 437.445
DANDE 04 Sep 12:08:35 12:16:09 48° 267° (W) 12:24:09 436.750
CUBEBUG 1 04 Sep 12:16:23 12:20:43 51° 99° (E) 12:25:02 437.445
DUCHIFAT 1 04 Sep 12:18:12 12:21:47 26° 265° (W) 12:25:21 145.980
POLYITAN 1 04 Sep 12:20:38 12:24:07 23° 266° (W) 12:27:32 437.675
POPSAT HIP 1 04 Sep 12:21:37 12:25:05 23° 267° (W) 12:28:28 437.405
AISAT 04 Sep 12:28:16 12:32:46 72° 285° (WNW) 12:37:13 437.250
ESTCUBE 1 04 Sep 12:29:47 12:34:20 87° 103° (ESE) 12:38:51 437.505/2401.250
NANOSAT C BR1 04 Sep 12:38:22 12:41:04 16° 269° (W) 12:43:36 145.865
QB50P2 04 Sep 12:40:56 12:43:22 14° 270° (W) 12:45:37 145.880/145.840
GONETS M04 04 Sep 12:44:10 12:51:24 29° 66° (ENE) 12:58:53
TISAT 1 04 Sep 12:45:16 12:48:08 18° 92° (E) 12:51:07 437.305
VELOX 1 04 Sep 12:55:32 12:59:42 38° 289° (WNW) 13:03:50 145.980
QB50P1 04 Sep 12:55:56 12:56:44 10° 273° (W) 12:57:15 145.935-145.965
CUSAT 1 04 Sep 12:56:28 13:01:20 17° 278° (W) 13:05:44 437.405
HUMSAT D 04 Sep 12:56:50 12:58:53 13° 296° (WNW) 13:00:45 437.325/437.525
Cosmos 2504 04 Sep 12:59:28 13:02:47 12° 285° (WNW) 13:05:26 435.465 / 435.565
Oscar 19 04 Sep 13:02:38 13:07:25 41° 70° (ENE) 13:12:18 437.125/150
BEESAT 3 04 Sep 13:12:55 13:14:36 13° 110° (ESE) 13:16:30 437.485
ISS 04 Sep 13:27:53 13:30:56 36° 27° (NNE) 13:33:59 145.825
DX 1 04 Sep 13:28:07 13:30:08 13° 297° (WNW) 13:31:57 434.975-435.025
50 SAT 04 Sep 13:28:55 13:30:17 11° 295° (WNW) 13:31:28 437.505
BEESAT 2 04 Sep 13:30:30 13:32:45 15° 111° (ESE) 13:35:11 435.950
SPROUT 04 Sep 13:32:03 13:36:24 75° 284° (WNW) 13:40:43 437.525
UKube-1 04 Sep 13:34:30 13:36:14 12° 297° (WNW) 13:37:44 .
JAS-2 04 Sep 13:49:35 13:55:49 28° 62° (ENE) 14:02:13 435.910
BEESAT 04 Sep 13:50:58 13:53:49 16° 90° (E) 13:56:50 436.000
CUBEBUG 1 04 Sep 13:53:55 13:56:42 16° 295° (WNW) 13:59:19 437.445
AO-7 04 Sep 14:08:39 14:14:13 21° 52° (NE) 14:20:05 29.400- 29.500
ESTCUBE 1 04 Sep 14:10:02 14:10:34 10° 298° (WNW) 14:10:52 437.505/2401.250
ITAMSAT 1 04 Sep 14:10:22 14:15:14 45° 71° (ENE) 14:20:10 435.822/435.867
Gurwin Techsat 1B 04 Sep 14:15:50 14:21:03 62° 73° (ENE) 14:26:19 435.225
SWISSCUBE 04 Sep 14:16:30 14:20:45 32° 96° (E) 14:25:01 437.505
TISAT 1 04 Sep 14:20:04 14:24:05 39° 288° (WNW) 14:28:03 437.305
AIST 2 04 Sep 14:34:48 14:37:03 15° 111° (ESE) 14:39:31 435.215
Cosmos 2499 04 Sep 14:38:47 14:46:39 39° 70° (ENE) 14:54:06 435.465 / 435.565
GONETS M04 04 Sep 14:40:18 14:49:00 65° 267° (W) 14:57:40
Oscar 19 04 Sep 14:42:42 14:46:57 25° 267° (W) 14:51:07 437.125/150
BEESAT 3 04 Sep 14:48:04 14:52:05 59° 305° (NW) 14:56:08 437.485
ITUPSAT 1 04 Sep 14:56:45 15:01:32 74° 103° (ESE) 15:06:18 437.325
RS-15 04 Sep 14:59:00 15:08:34 39° 108° (ESE) 15:18:41 29.354- 29.394
ISS 04 Sep 15:04:26 15:07:17 28° 224° (SW) 15:10:06 145.825
BEESAT 2 04 Sep 15:06:25 15:10:25 51° 306° (NW) 15:14:27 435.950
BEESAT 04 Sep 15:27:23 15:32:02 53° 287° (WNW) 15:36:39 436.000
KKS-1 04 Sep 15:31:50 15:35:43 28° 95° (E) 15:39:38 437.445
JAS-2 04 Sep 15:32:32 15:40:17 69° 259° (W) 15:48:06 435.910
HORYU 2 04 Sep 15:41:48 15:46:01 42° 71° (ENE) 15:50:18 437.375
ITAMSAT 1 04 Sep 15:50:57 15:55:00 22° 267° (W) 15:58:55 435.822/435.867
SWISSCUBE 04 Sep 15:54:28 15:58:31 27° 292° (WNW) 16:02:27 437.505
AO-7 04 Sep 15:57:40 16:06:02 86° 71° (ENE) 16:14:24 29.400- 29.500
Gurwin Techsat 1B 04 Sep 15:58:06 16:01:32 17° 271° (W) 16:04:45 435.225
AIST 2 04 Sep 16:11:03 16:15:14 56° 306° (NW) 16:19:25 435.215
MOZHAYETS 4 04 Sep 16:15:37 16:17:29 13° 88° (E) 16:19:36
Cosmos 2499 04 Sep 16:31:57 16:39:59 45° 272° (W) 16:47:22 435.465 / 435.565
ITUPSAT 1 04 Sep 16:36:35 16:38:52 13° 298° (WNW) 16:40:56 437.325
STARS 04 Sep 16:38:36 16:43:04 89° 90° (E) 16:47:31 437.465
GONETS M04 04 Sep 16:42:02 16:44:18 11° 285° (WNW) 16:45:47
CUTE-I 04 Sep 17:06:48 17:09:53 16° 62° (ENE) 17:13:10 437.470
KKS-1 04 Sep 17:08:27 17:12:18 27° 291° (WNW) 17:16:02 437.445
RS-15 04 Sep 17:09:37 17:20:29 62° 311° (NW) 17:31:49 29.354- 29.394
HORYU 2 04 Sep 17:19:41 17:22:53 18° 268° (W) 17:25:57 437.375
JAS-2 04 Sep 17:23:27 17:26:49 12° 279° (W) 17:29:32 435.910
MOZHAYETS 4 04 Sep 17:50:42 17:55:13 62° 285° (WNW) 17:59:42
AO-7 04 Sep 17:54:06 17:59:58 19° 271° (W) 18:05:22 29.400- 29.500
Cubesat XI-IV 04 Sep 18:00:45 18:05:49 48° 71° (ENE) 18:10:56 437.490
O/OREOS (USA 219) 04 Sep 18:18:37 18:22:59 49° 108° (ESE) 18:27:25 437.305
CUBESAT XI-V 04 Sep 18:19:40 18:23:22 23° 93° (E) 18:27:09 437.345
HO-68 04 Sep 18:35:15 18:37:51 13° 51° (NE) 18:40:52 435.675
CUTE-I 04 Sep 18:44:09 18:49:26 71° 258° (WSW) 18:54:46 437.470
Cosmos 2491 04 Sep 18:55:16 19:02:28 29° 66° (ENE) 19:09:54 435.465 / 435.565
YUBILEINY 04 Sep 19:07:49 19:09:41 11° 75° (ENE) 19:12:19 435.215
AIST 1 04 Sep 19:07:59 19:12:21 80° 81° (E) 19:16:44
RS-15 04 Sep 19:26:59 19:35:58 26° 341° (NNW) 19:45:05 29.354- 29.394
BRITE-PL 04 Sep 19:34:54 19:39:18 61° 74° (ENE) 19:44:06 437.365/2234.400
DOVE 4 04 Sep 19:34:55 19:38:38 24° 66° (ENE) 19:42:38 437.250
GOMX 1 04 Sep 19:41:46 19:46:07 43° 71° (ENE) 19:50:51 467.674
Cubesat XI-IV 04 Sep 19:42:07 19:46:13 22° 268° (W) 19:50:11 437.490
CINEMA 3 04 Sep 19:49:51 19:52:31 15° 63° (ENE) 19:55:27 145.822/145.860
STRAND 1 04 Sep 19:52:16 19:57:15 51° 99° (E) 20:02:14 437.568
CUBESAT XI-V 04 Sep 19:56:39 20:00:54 35° 289° (WNW) 20:05:06 437.345
O/OREOS (USA 219) 04 Sep 19:59:29 20:02:45 19° 306° (NW) 20:05:55 437.305
PRISM 04 Sep 20:05:53 20:09:53 48° 100° (E) 20:13:53 437.425
CUTE 1.7 + AOD 2 04 Sep 20:12:24 20:16:15 34° 71° (ENE) 20:20:09 437.475
HO-68 04 Sep 20:17:19 20:24:20 63° 70° (ENE) 20:31:27 435.675
CANX-2 04 Sep 20:26:44 20:30:55 56° 74° (ENE) 20:35:08 2200.000
FUNcube-1 04 Sep 20:34:14 20:34:37 10° 62° (ENE) 20:35:15 145.935
SEEDS 04 Sep 20:40:17 20:44:26 56° 74° (ENE) 20:48:36 437.485
UWE-3 04 Sep 20:44:45 20:47:53 19° 66° (ENE) 20:51:12 435.000/436.395/437.385
CUBEBUG 2 04 Sep 20:46:24 20:50:08 25° 68° (ENE) 20:54:02 437.445
Cosmos 2491 04 Sep 20:51:26 21:00:04 64° 267° (W) 21:08:40 435.465 / 435.565
COMPASS 1 04 Sep 20:54:45 20:58:55 64° 75° (ENE) 21:03:05 437.405
DELFI C3 04 Sep 20:55:40 20:57:56 15° 66° (ENE) 21:00:22 145.870
YUBILEINY 04 Sep 20:56:21 21:04:58 66° 93° (E) 21:13:43 435.215
AAUSAT CUBESAT 2 04 Sep 21:01:02 21:05:10 63° 75° (ENE) 21:09:18 437.432
Oscar 11 04 Sep 21:10:13 21:14:10 35° 71° (ENE) 21:18:09 145.826/435.025
DOVE 4 04 Sep 21:11:42 21:16:09 40° 264° (W) 21:20:50 437.250
BRITE-PL 04 Sep 21:16:17 21:18:30 13° 274° (W) 21:20:32 437.365/2234.400
GOMX 1 04 Sep 21:21:04 21:24:33 20° 271° (W) 21:28:05 467.674
CINEMA 3 04 Sep 21:24:26 21:29:10 66° 259° (W) 21:34:07 145.822/145.860
BEESAT 3 04 Sep 21:30:28 21:31:43 11° 37° (NE) 21:33:08 437.485
STRAND 1 04 Sep 21:32:23 21:36:07 20° 296° (WNW) 21:39:44 437.568
PRISM 04 Sep 21:42:34 21:44:57 15° 295° (WNW) 21:47:12 437.425
Cosmos 2504 04 Sep 21:44:31 21:49:18 18° 78° (ENE) 21:54:41 435.465 / 435.565
RS-15 04 Sep 21:44:51 21:53:41 24° 16° (NNE) 22:03:00 29.354- 29.394
BEESAT 2 04 Sep 21:48:46 21:50:37 13° 38° (NE) 21:52:36 435.950
CUTE 1.7 + AOD 2 04 Sep 21:49:01 21:52:17 20° 268° (W) 21:55:25 437.475
AISAT 04 Sep 21:53:14 21:54:11 11° 62° (ENE) 21:55:23 437.250
ZACube-1 04 Sep 22:02:23 22:06:58 86° 77° (ENE) 22:11:36 437.345
CANX-2 04 Sep 22:05:15 22:07:16 13° 272° (W) 22:09:02 2200.000
FUNcube-1 04 Sep 22:05:42 22:10:16 90° 347° (NNW) 22:14:53 145.935
HO-68 04 Sep 22:06:51 22:12:38 25° 268° (W) 22:18:13 435.675
HUMSAT D 04 Sep 22:10:51 22:14:54 41° 72° (ENE) 22:19:00 437.325/437.525
VELOX 1 04 Sep 22:17:49 22:20:51 19° 66° (ENE) 22:24:00 145.980
SEEDS 04 Sep 22:18:45 22:20:38 12° 271° (W) 22:22:18 437.485
UWE-3 04 Sep 22:19:35 22:24:04 48° 262° (W) 22:28:37 435.000/436.395/437.385
CUBEBUG 2 04 Sep 22:22:19 22:26:39 36° 264° (W) 22:31:02 437.445
DELFI C3 04 Sep 22:28:47 22:32:40 44° 261° (W) 22:36:33 145.870
COMPASS 1 04 Sep 22:34:01 22:35:04 11° 272° (W) 22:35:52 437.405
50 SAT 04 Sep 22:35:48 22:39:16 31° 71° (ENE) 22:42:47 437.505
CUSAT 1 04 Sep 22:39:45 22:41:29 12° 79° (ENE) 22:43:41 437.405
TIGRISAT 04 Sep 22:39:53 22:42:54 18° 91° (E) 22:46:01 435.000
AAUSAT CUBESAT 2 04 Sep 22:40:11 22:41:15 11° 272° (W) 22:42:03 437.432
DX 1 04 Sep 22:45:28 22:49:42 57° 73° (ENE) 22:54:00 434.975-435.025
Oscar 11 04 Sep 22:47:10 22:50:29 20° 268° (W) 22:53:40 145.826/435.025
UKube-1 04 Sep 22:50:53 22:55:07 59° 74° (ENE) 22:59:23 .
Cosmos 2491 04 Sep 22:53:25 22:55:23 11° 285° (WNW) 22:56:33 435.465 / 435.565
YUBILEINY 04 Sep 22:55:12 23:02:37 28° 295° (WNW) 23:09:48 435.215
AIST 2 04 Sep 22:55:34 22:57:36 13° 38° (NE) 22:59:46 435.215
ANTELSAT 04 Sep 22:58:14 23:02:11 29° 95° (E) 23:06:04 437.575/2403.000
QB50P1 04 Sep 23:03:36 23:04:39 11° 88° (E) 23:05:58 145.935-145.965
BEESAT 3 04 Sep 23:06:19 23:10:22 82° 56° (NE) 23:14:20 437.485
CUBEBUG 1 04 Sep 23:12:32 23:16:36 42° 72° (ENE) 23:20:44 437.445
AUBIESAT-1 04 Sep 23:20:06 23:22:40 18° 97° (E) 23:25:14 437.475
BEESAT 2 04 Sep 23:25:12 23:29:16 84° 239° (WSW) 23:33:16 435.950
AISAT 04 Sep 23:25:45 23:30:10 80° 258° (WSW) 23:34:37 437.250
ESTCUBE 1 04 Sep 23:29:15 23:33:44 80° 75° (ENE) 23:38:14 437.505/2401.250
M-CUBED/EXP-1 PRIME 04 Sep 23:29:25 23:32:45 29° 100° (E) 23:35:53 437.505
Cosmos 2504 04 Sep 23:32:08 23:40:23 88° 97° (E) 23:49:05 435.465 / 435.565
SO-50 04 Sep 23:37:56 23:41:49 26° 113° (ESE) 23:45:54 436.795
TISAT 1 04 Sep 23:38:15 23:40:29 14° 65° (ENE) 23:42:53 437.305
DANDE 04 Sep 23:38:42 23:41:57 27° 87° (E) 23:46:11 436.750
HUMSAT D 04 Sep 23:47:50 23:50:51 18° 269° (W) 23:53:42 437.325/437.525
UNISAT 6 04 Sep 23:48:43 23:53:17 78° 286° (WNW) 23:57:41 437.425
BUGSAT 1 04 Sep 23:49:56 23:53:14 22° 93° (E) 23:56:38 437.445
VELOX 1 04 Sep 23:52:56 23:57:07 42° 262° (W) 00:01:19 145.980
DUCHIFAT 1 05 Sep 00:01:54 00:06:03 48° 99° (E) 00:10:11 145.980
POLYITAN 1 05 Sep 00:04:51 00:09:06 56° 100° (E) 00:13:19 437.675
POPSAT HIP 1 05 Sep 00:05:35 00:09:49 55° 100° (E) 00:14:02 437.405
50 SAT 05 Sep 00:10:53 00:13:50 19° 267° (W) 00:16:42 437.505
